IBE4LB LEMD-LECO

Flight info

Callsign IBE4LB
Flight time 0h 46m
Altitude 29000
Route ZMR N733 DESAT/N0450F300 DCT LOMDA
Aircraft A321/M-SDE3FGHIRWY/LB1

Departure

Time 2026-04-30 20:40
Airport Adolfo Suárez Madrid–Barajas Airport (LEMD)

Arrival

Time 2026-04-30 21:26
Airport A Coruña Airport (LECO)
Time Latitude Longitude Altitude Speed Heading
2026-04-30 20:25 40.49307 -3.58727 2024 ft 0 kts 271°
2026-04-30 20:31 40.49308 -3.58778 2026 ft 0 kts 271°
2026-04-30 20:32 40.49308 -3.58830 2029 ft 4 kts 271°
2026-04-30 20:32 40.49256 -3.58877 2028 ft 6 kts 158°
2026-04-30 20:33 40.49237 -3.58836 2025 ft 4 kts 99°
2026-04-30 20:33 40.49239 -3.58778 2025 ft 2 kts 89°
2026-04-30 20:33 40.49239 -3.58765 2028 ft 1 kts 89°
2026-04-30 20:34 40.49239 -3.58762 2030 ft 0 kts 89°
2026-04-30 20:36 40.49240 -3.58729 2030 ft 11 kts 89°
2026-04-30 20:37 40.49241 -3.58614 2031 ft 13 kts 89°
2026-04-30 20:37 40.49241 -3.58492 2016 ft 15 kts 90°
2026-04-30 20:37 40.49240 -3.58347 2010 ft 17 kts 90°
2026-04-30 20:37 40.49240 -3.58177 2004 ft 20 kts 90°
2026-04-30 20:38 40.49240 -3.57998 2001 ft 19 kts 90°
2026-04-30 20:38 40.49242 -3.57818 1994 ft 19 kts 89°
2026-04-30 20:38 40.49242 -3.57675 1990 ft 13 kts 88°
2026-04-30 20:39 40.49327 -3.57462 1986 ft 14 kts 36°
2026-04-30 20:39 40.49424 -3.57450 1983 ft 22 kts 359°
2026-04-30 20:39 40.49820 -3.57455 1987 ft 90 kts 359°
2026-04-30 20:40 40.51758 -3.57469 2056 ft 176 kts 359°
2026-04-30 20:40 40.52955 -3.57471 2730 ft 167 kts
2026-04-30 20:40 40.54092 -3.57437 3454 ft 160 kts
2026-04-30 20:41 40.56336 -3.57432 4330 ft 176 kts 358°
2026-04-30 20:41 40.57632 -3.57457 4517 ft 197 kts 359°
2026-04-30 20:41 40.59084 -3.57480 4676 ft 219 kts
2026-04-30 20:41 40.60626 -3.57112 5039 ft 231 kts 21°
2026-04-30 20:42 40.62102 -3.56232 5705 ft 234 kts 25°
2026-04-30 20:42 40.63596 -3.55458 6384 ft 236 kts
2026-04-30 20:42 40.66867 -3.56033 7673 ft 241 kts 355°
2026-04-30 20:43 40.68553 -3.56085 8340 ft 244 kts
2026-04-30 20:43 40.70262 -3.56020 9018 ft 246 kts
2026-04-30 20:43 40.71982 -3.56038 9688 ft 248 kts 349°
2026-04-30 20:44 40.74915 -3.58353 10542 ft 266 kts 301°
2026-04-30 20:44 40.75852 -3.60533 10713 ft 288 kts 296°
2026-04-30 20:44 40.77911 -3.65538 10979 ft 333 kts 297°
2026-04-30 20:45 40.80274 -3.71216 11342 ft 368 kts 297°
2026-04-30 20:45 40.81525 -3.74195 11852 ft 374 kts 297°
2026-04-30 20:45 40.82791 -3.77212 12435 ft 377 kts 297°
2026-04-30 20:46 40.86644 -3.86415 14147 ft 386 kts 297°
2026-04-30 20:46 40.87944 -3.89530 14648 ft 389 kts 297°
2026-04-30 20:47 40.90572 -3.95830 15591 ft 394 kts 296°
2026-04-30 20:47 40.91894 -3.99019 16059 ft 396 kts 296°
2026-04-30 20:48 40.94532 -4.05409 16923 ft 401 kts 296°
2026-04-30 20:48 40.95875 -4.08659 17355 ft 403 kts 296°
2026-04-30 20:48 40.97227 -4.11928 17767 ft 406 kts 296°
2026-04-30 20:48 40.98584 -4.15209 18183 ft 408 kts 296°
2026-04-30 20:49 40.99948 -4.18510 18573 ft 410 kts 296°
2026-04-30 20:49 41.01323 -4.21834 18928 ft 413 kts 296°
2026-04-30 20:49 41.02675 -4.25211 19275 ft 415 kts 295°
2026-04-30 20:50 41.05259 -4.32143 19751 ft 428 kts 294°
2026-04-30 20:50 41.06555 -4.35732 19896 ft 436 kts 294°
2026-04-30 20:50 41.07856 -4.39327 20177 ft 440 kts 294°
2026-04-30 20:50 41.09195 -4.42989 20504 ft 443 kts 294°
2026-04-30 20:51 41.10552 -4.46673 20850 ft 446 kts 294°
2026-04-30 20:51 41.13301 -4.54091 21535 ft 450 kts 294°
2026-04-30 20:51 41.14681 -4.57830 21864 ft 453 kts 294°
2026-04-30 20:52 41.16067 -4.61597 22184 ft 456 kts 294°
2026-04-30 20:52 41.17460 -4.65388 22516 ft 458 kts 294°
2026-04-30 20:52 41.20261 -4.73026 23186 ft 463 kts 294°
2026-04-30 20:53 41.21674 -4.76894 23503 ft 465 kts 294°
2026-04-30 20:53 41.23090 -4.80773 23797 ft 468 kts 294°
2026-04-30 20:53 41.24509 -4.84669 24055 ft 470 kts 294°
2026-04-30 20:54 41.27342 -4.92465 24593 ft 471 kts 294°
2026-04-30 20:54 41.28774 -4.96397 24840 ft 473 kts 294°
2026-04-30 20:54 41.30207 -5.00334 25039 ft 475 kts 294°
2026-04-30 20:55 41.33084 -5.08272 25447 ft 477 kts 294°
2026-04-30 20:55 41.34032 -5.10898 25570 ft 478 kts 293°
2026-04-30 20:55 41.35473 -5.14895 25749 ft 479 kts 293°
2026-04-30 20:56 41.38826 -5.24215 26121 ft 481 kts 293°
2026-04-30 20:56 41.40273 -5.28235 26262 ft 482 kts 293°
2026-04-30 20:56 41.42687 -5.34948 26545 ft 483 kts 293°
2026-04-30 20:57 41.44271 -5.38895 26725 ft 484 kts 299°
2026-04-30 20:57 41.46050 -5.42688 27127 ft 479 kts 300°
2026-04-30 20:57 41.47825 -5.46427 27493 ft 476 kts 300°
2026-04-30 20:58 41.51944 -5.55082 28154 ft 474 kts 300°
2026-04-30 20:58 41.53134 -5.57593 28354 ft 473 kts 300°
2026-04-30 20:58 41.54887 -5.61306 28631 ft 473 kts 299°
2026-04-30 20:58 41.56639 -5.65022 28902 ft 472 kts 299°
2026-04-30 20:59 41.60113 -5.72425 29152 ft 466 kts 299°
2026-04-30 20:59 41.61823 -5.76077 29137 ft 463 kts 299°
2026-04-30 21:00 41.68632 -5.90641 29141 ft 464 kts 299°
2026-04-30 21:01 41.73754 -6.01640 29137 ft 464 kts 299°
2026-04-30 21:02 41.78838 -6.12600 29142 ft 464 kts 299°
2026-04-30 21:02 41.82347 -6.19847 29147 ft 466 kts 306°
2026-04-30 21:03 41.87072 -6.25860 29138 ft 471 kts 320°
2026-04-30 21:03 41.92274 -6.31229 29130 ft 472 kts 320°
2026-04-30 21:04 41.97463 -6.36604 29116 ft 472 kts 320°
2026-04-30 21:04 42.05216 -6.44688 29128 ft 471 kts 320°
2026-04-30 21:05 42.10391 -6.50106 29135 ft 472 kts 320°
2026-04-30 21:05 42.15574 -6.55526 29124 ft 472 kts 320°
2026-04-30 21:06 42.20760 -6.60953 29124 ft 472 kts 320°
2026-04-30 21:06 42.25949 -6.66401 29127 ft 472 kts 320°
2026-04-30 21:07 42.31127 -6.71855 29133 ft 473 kts 320°
2026-04-30 21:07 42.36272 -6.77287 29134 ft 472 kts 320°
2026-04-30 21:08 42.41445 -6.82757 29132 ft 472 kts 320°
2026-04-30 21:08 42.46626 -6.88244 29147 ft 472 kts 319°
2026-04-30 21:09 42.51802 -6.93742 29145 ft 473 kts 319°
2026-04-30 21:09 42.56967 -6.99242 29141 ft 473 kts 319°
2026-04-30 21:10 42.62139 -7.04764 29149 ft 473 kts 319°
2026-04-30 21:10 42.67275 -7.10246 28927 ft 473 kts 319°
2026-04-30 21:11 42.69850 -7.12998 28263 ft 469 kts 319°
2026-04-30 21:11 42.72400 -7.15728 27556 ft 465 kts 319°
2026-04-30 21:11 42.74929 -7.18441 26821 ft 462 kts 319°
2026-04-30 21:11 42.77441 -7.21143 26061 ft 459 kts 319°
2026-04-30 21:12 42.79946 -7.23839 25303 ft 458 kts 319°
2026-04-30 21:12 42.82433 -7.26519 24524 ft 456 kts 319°
2026-04-30 21:12 42.84844 -7.29349 23440 ft 459 kts 313°
2026-04-30 21:12 42.86932 -7.32620 22540 ft 454 kts 304°
2026-04-30 21:13 42.88858 -7.36029 21364 ft 457 kts 306°
2026-04-30 21:13 42.90861 -7.39352 20166 ft 463 kts 308°
2026-04-30 21:13 42.92967 -7.42685 19075 ft 458 kts 309°
2026-04-30 21:13 42.95029 -7.45875 17456 ft 443 kts 309°
2026-04-30 21:14 42.97041 -7.48988 16105 ft 429 kts 309°
2026-04-30 21:14 42.98989 -7.52045 15695 ft 425 kts 308°
2026-04-30 21:14 43.00914 -7.55117 15302 ft 425 kts 308°
2026-04-30 21:14 43.02818 -7.58195 14916 ft 422 kts 308°
2026-04-30 21:15 43.04695 -7.61250 14541 ft 419 kts 308°
2026-04-30 21:15 43.06558 -7.64292 14162 ft 413 kts 308°
2026-04-30 21:15 43.08371 -7.67252 13722 ft 398 kts 308°
2026-04-30 21:15 43.10081 -7.70031 13018 ft 375 kts 308°
2026-04-30 21:16 43.11714 -7.72674 12324 ft 353 kts 308°
2026-04-30 21:16 43.13262 -7.75176 11653 ft 335 kts 308°
2026-04-30 21:16 43.14730 -7.77558 10986 ft 320 kts 308°
2026-04-30 21:16 43.16138 -7.79852 10338 ft 309 kts 308°
2026-04-30 21:17 43.17496 -7.82070 9615 ft 300 kts 307°
2026-04-30 21:17 43.18826 -7.84240 8840 ft 295 kts 307°
2026-04-30 21:17 43.20133 -7.86371 8519 ft 290 kts 307°
2026-04-30 21:17 43.21430 -7.88492 8397 ft 290 kts 307°
2026-04-30 21:18 43.22724 -7.90613 8254 ft 290 kts 307°
2026-04-30 21:18 43.24014 -7.92733 8137 ft 289 kts 307°
2026-04-30 21:18 43.25300 -7.94844 8008 ft 288 kts 307°
2026-04-30 21:18 43.26589 -7.96954 7881 ft 288 kts 307°
2026-04-30 21:19 43.27873 -7.99057 7581 ft 288 kts 307°
2026-04-30 21:19 43.29140 -8.01137 7134 ft 287 kts 307°
2026-04-30 21:19 43.30420 -8.03240 6660 ft 287 kts 307°
2026-04-30 21:19 43.31702 -8.05349 6154 ft 288 kts 307°
2026-04-30 21:20 43.32981 -8.07452 5676 ft 287 kts 307°
2026-04-30 21:20 43.34258 -8.09548 5196 ft 285 kts 307°
2026-04-30 21:20 43.35529 -8.11635 4692 ft 281 kts 307°
2026-04-30 21:20 43.36740 -8.13622 4242 ft 262 kts 307°
2026-04-30 21:21 43.37865 -8.15467 3997 ft 239 kts 307°
2026-04-30 21:21 43.38895 -8.17164 3852 ft 228 kts 307°
2026-04-30 21:21 43.40887 -8.20460 3631 ft 215 kts 307°
2026-04-30 21:22 43.41707 -8.22116 3326 ft 210 kts 293°
2026-04-30 21:22 43.41597 -8.27365 2778 ft 165 kts 240°
2026-04-30 21:23 43.40970 -8.28582 2609 ft 150 kts 226°
2026-04-30 21:23 43.40194 -8.29498 2435 ft 145 kts 213°
2026-04-30 21:23 43.38675 -8.30757 2103 ft 143 kts 210°
2026-04-30 21:24 43.37821 -8.31462 1908 ft 144 kts 210°
2026-04-30 21:24 43.36963 -8.32168 1712 ft 144 kts 210°
2026-04-30 21:24 43.36103 -8.32876 1514 ft 144 kts 210°
2026-04-30 21:24 43.35245 -8.33582 1318 ft 143 kts 211°
2026-04-30 21:25 43.33545 -8.34980 939 ft 142 kts 211°
2026-04-30 21:25 43.32712 -8.35665 749 ft 141 kts 211°
2026-04-30 21:25 43.31866 -8.36366 575 ft 140 kts 212°
2026-04-30 21:26 43.30284 -8.37668 337 ft 90 kts 211°
2026-04-30 21:26 43.29984 -8.37908 348 ft 20 kts 209°
2026-04-30 21:27 43.30047 -8.38075 341 ft 14 kts
2026-04-30 21:27 43.30114 -8.38048 341 ft 7 kts 23°
2026-04-30 21:27 43.30158 -8.38015 338 ft 9 kts 27°
2026-04-30 21:28 43.30218 -8.37965 339 ft 5 kts 359°
2026-04-30 21:28 43.30241 -8.37997 339 ft 4 kts 303°
2026-04-30 21:28 43.30246 -8.38008 340 ft 0 kts 301°